This demonstration page uses our WeatherBlox Daily Observations layout. Learn more.

Left ArrowRight Arrow

34.16533, -84.80231

Hourly Observations for November 4, 2020

Temp ( °F °C ) Dew Point ( °F °C ) Humidity (%) Winds ( mph kmh ) Pressure ( in mb ) Visibility ( mi km ) Precip ( " mm )
12:53 am 00:53 Clear 38 3.3 36 2.2 93 93 Calm 30.32 1027 10 16 0.00 0.00
1:53 am 01:53 Clear 38 3.3 35 1.7 89 89 Calm 30.33 1027 10 16 0.00 0.00
2:53 am 02:53 Clear 38 3.3 35 1.7 89 89 Calm 30.33 1027 10 16 0.00 0.00
3:53 am 03:53 Clear 37 2.8 34 1.1 89 89 Calm 30.34 1027 10 16 0.00 0.00
4:53 am 04:53 Clear 37 2.8 35 1.7 93 93 Calm 30.36 1028 10 16 0.00 0.00
5:53 am 05:53 Clear 36 2.2 33 0.6 89 89 Calm 30.38 1029 10 16 0.00 0.00
6:53 am 06:53 Clear 36 2.2 33 0.6 89 89 Calm 30.38 1029 10 16 0.00 0.00
7:53 am 07:53 Sunny 38 3.3 35 1.7 89 89 Calm 30.40 1030 10 16 0.00 0.00
8:53 am 08:53 Sunny 46 7.8 42 5.6 86 86 Calm 30.42 1030 10 16 0.00 0.00
9:53 am 09:53 Sunny 54 12.2 43 6.1 67 67 Calm 30.42 1030 10 16 0.00 0.00
10:53 am 10:53 Sunny 59 15 44 6.7 58 58 NE 3 6 30.41 1030 10 16 0.00 0.00
11:53 am 11:53 Sunny 66 18.9 44 6.7 45 45 VRB 3 6 30.40 1029 10 16 0.00 0.00
12:53 pm 12:53 Sunny 69 20.6 40 4.4 35 35 E 7 11 30.37 1029 10 16 0.00 0.00
1:53 pm 13:53 Sunny 70 21.1 39 3.9 32 32 undefined N/A 30.36 1028 10 16 0.00 0.00
2:53 pm 14:53 Sunny 71 21.7 40 4.4 32 32 ENE 7 11 30.35 1028 10 16 0.00 0.00
3:53 pm 15:53 Sunny 71 21.7 39 3.9 31 31 VRB 3 6 30.35 1028 10 16 0.00 0.00
4:53 pm 16:53 Sunny 67 19.4 44 6.7 44 44 Calm 30.35 1028 10 16 0.00 0.00
5:53 pm 17:53 Clear 55 12.8 47 8.3 74 74 S 3 6 30.36 1028 10 16 0.00 0.00
6:53 pm 18:53 Clear 53 11.7 46 7.8 77 77 Calm 30.38 1029 10 16 0.00 0.00
7:53 pm 19:53 Clear 50 10 45 7.2 83 83 Calm 30.40 1029 10 16 0.00 0.00
8:53 pm 20:53 Clear 48 8.9 44 6.7 86 86 Calm 30.40 1029 10 16 0.00 0.00
9:53 pm 21:53 Clear 46 7.8 43 6.1 89 89 Calm 30.40 1029 10 16 0.00 0.00
10:53 pm 22:53 Clear 46 7.8 42 5.6 86 86 Calm 30.40 1029 10 16 0.00 0.00
11:53 pm 23:53 Clear 44 6.7 41 5 89 89 Calm 30.39 1029 10 16 0.00 0.00

Powered by AerisWeather